Lewisburg, WV

9:22 AM EDT on August 17, 2019 (GMT -0400)
Greenbrier Valley

Weather History for KLWB - July, 2019

Change the Weather History Date:

Sunday, July 21, 2019

  Actual Average Record
Temperature  
Mean Temperature 76 °F -  
Max Temperature 87 °F 85 °F 91 °F (2011)
Min Temperature 65 °F 60 °F 45 °F (1996)
Cooling Degree Days 10    
Growing Degree Days 26 (Base 50)    
Moisture  
Dew Point 69 °F    
Average Humidity 89    
Maximum Humidity 100    
Minimum Humidity 57    
Precipitation  
Precipitation 0.35 in - - ()
Sea Level Pressure  
Sea Level Pressure 30.08 in    
Wind  
Wind Speed 1 mph (NNW)    
Max Wind Speed 14 mph    
Max Gust Speed 22 mph    
Visibility 8 miles    
Events Fog , Rain , Thunderstorm    
Averages and records for this station are not official NWS values.
T = Trace of Precipitation, MM = Missing Value Source: NWS Daily Summary

Daily Weather History Graph

Daily Weather History Graph

Search for Another Location

Airport or City:

Astronomy

Jul. 21, 2019 Rise Set
Actual Time 6:15 AM EDT 8:39 PM EDT
Civil Twilight 5:45 AM EDT 9:09 PM EDT
Nautical Twilight 5:08 AM EDT 9:46 PM EDT
Astronomical Twilight 4:27 AM EDT 10:27 PM EDT
Moon 11:38 PM EDT (7/21) 10:31 AM EDT (7/21)
Length of Visible Light 15h 24m
Length of Day
14h 24m
Waning Gibbous, 80% of the Moon is Illuminated
Jul 21
Waning Gibbous
Jul 24
Last Quarter
Jul 31
New
Aug 7
First Quarter
Aug 15
Full

Hourly Weather History & Observations

Time (EDT) Temp. Heat Index Dew Point Humidity Pressure Visibility Wind Dir Wind Speed Gust Speed Precip Events Conditions
12:10 AM 73.0 °F - 70.7 °F 92% 30.10 in 10.0 mi Calm Calm - N/A   Clear
12:30 AM 72.7 °F - 70.3 °F 92% 30.09 in 10.0 mi Calm Calm - N/A   Clear
12:50 AM 71.2 °F - 69.6 °F 95% 30.09 in 10.0 mi Calm Calm - N/A   Clear
1:10 AM 72.7 °F - 70.2 °F 92% 30.09 in 10.0 mi Calm Calm - N/A   Clear
1:30 AM 71.1 °F - 69.8 °F 96% 30.09 in 10.0 mi Calm Calm - N/A   Clear
1:50 AM 71.6 °F - 70.0 °F 95% 30.09 in 10.0 mi Calm Calm - N/A   Clear
2:10 AM 70.3 °F - 69.4 °F 97% 30.08 in 7.0 mi Calm Calm - N/A   Clear
2:30 AM 69.1 °F - 68.4 °F 98% 30.08 in 7.0 mi Calm Calm - N/A   Clear
2:50 AM 69.6 °F - 68.5 °F 96% 30.08 in 7.0 mi Calm Calm - N/A   Clear
3:10 AM 68.2 °F - 67.6 °F 98% 30.07 in 5.0 mi Calm Calm - N/A   Clear
3:30 AM 69.1 °F - 68.4 °F 98% 30.07 in 7.0 mi Calm Calm - N/A   Clear
3:50 AM 69.3 °F - 68.9 °F 99% 30.07 in 3.0 mi Calm Calm - N/A   Scattered Clouds
4:10 AM 68.0 °F - 67.5 °F 98% 30.06 in 5.0 mi Calm Calm - N/A   Scattered Clouds
4:30 AM 68.9 °F - 68.4 °F 98% 30.06 in 7.0 mi Calm Calm - N/A   Clear
5:10 AM 67.1 °F - 66.7 °F 99% 30.08 in - Calm Calm - N/A   Unknown
5:30 AM 65.8 °F - 65.3 °F 98% 30.09 in 7.0 mi Calm Calm - N/A   Clear
5:50 AM 66.4 °F - 66.2 °F 99% 30.07 in 0.8 mi Calm Calm - N/A   Mostly Cloudy
6:10 AM 66.6 °F - 66.2 °F 99% 30.07 in 1.5 mi Calm Calm - N/A   Overcast
6:30 AM 67.1 °F - 66.9 °F 99% 30.08 in 0.2 mi Calm Calm - N/A Fog Fog
6:50 AM 67.3 °F - 67.1 °F 99% 30.09 in 5.0 mi Calm Calm - N/A   Clear
7:10 AM 66.9 °F - 66.6 °F 99% 30.10 in 0.2 mi NNE 3.5 mph - N/A Fog Fog
7:30 AM 67.3 °F - 67.1 °F 99% 30.10 in 0.2 mi Calm Calm - N/A Fog Fog
7:50 AM 68.0 °F - 68.0 °F 100% 30.10 in 0.2 mi Calm Calm - N/A Fog Fog
8:10 AM 68.9 °F - 68.7 °F 99% 30.10 in 0.2 mi Calm Calm - N/A Fog Fog
8:30 AM 71.4 °F - 71.1 °F 99% 30.10 in 7.0 mi Calm Calm - N/A   Scattered Clouds
8:50 AM 73.9 °F - 71.8 °F 93% 30.11 in 10.0 mi Calm Calm - N/A   Clear
9:10 AM 76.5 °F - 72.0 °F 86% 30.10 in 10.0 mi South 3.5 mph - N/A   Clear
9:30 AM 77.7 °F - 72.0 °F 82% 30.11 in 10.0 mi WSW 4.6 mph - N/A   Clear
9:50 AM 78.4 °F - 72.0 °F 80% 30.11 in 10.0 mi Calm Calm - N/A   Scattered Clouds
10:10 AM 79.7 °F - 72.5 °F 79% 30.10 in - Calm Calm - N/A   Unknown
10:30 AM 80.4 °F 84.7 °F 72.5 °F 77% 30.10 in 10.0 mi Calm Calm - N/A   Scattered Clouds
10:50 AM 81.7 °F 86.0 °F 71.6 °F 71% 30.10 in 10.0 mi NNW 3.5 mph - N/A   Scattered Clouds
11:10 AM 82.4 °F 87.4 °F 72.0 °F 71% 30.10 in 10.0 mi Calm Calm - N/A   Scattered Clouds
11:30 AM 82.8 °F 87.4 °F 71.2 °F 68% 30.10 in 10.0 mi WSW 5.8 mph - N/A   Scattered Clouds
11:50 AM 85.1 °F 90.4 °F 71.2 °F 63% 30.10 in 10.0 mi WNW 3.5 mph - N/A   Scattered Clouds
12:10 PM 82.6 °F 86.6 °F 70.3 °F 66% 30.10 in 10.0 mi NNW 3.5 mph - N/A   Overcast
12:30 PM 81.5 °F 85.9 °F 71.6 °F 72% 30.10 in 10.0 mi West 5.8 mph - N/A   Overcast
12:50 PM 85.1 °F 89.8 °F 70.3 °F 61% 30.09 in 10.0 mi NW 3.5 mph - N/A   Scattered Clouds
1:10 PM 86.0 °F 90.7 °F 70.0 °F 59% 30.08 in 10.0 mi SW 3.5 mph - N/A   Clear
1:30 PM 86.9 °F 91.7 °F 69.8 °F 57% 30.07 in 10.0 mi NNE 4.6 mph - N/A   Scattered Clouds
1:50 PM 85.3 °F 89.1 °F 68.9 °F 58% 30.06 in 10.0 mi Calm Calm - N/A Thunderstorm Scattered Clouds
2:10 PM 86.2 °F 90.7 °F 69.8 °F 58% 30.05 in 10.0 mi Calm Calm - N/A Thunderstorm Thunderstorm
2:30 PM 81.1 °F 84.4 °F 69.1 °F 67% 30.07 in 10.0 mi SW 13.8 mph 18.4 mph N/A Thunderstorm Mostly Cloudy
2:50 PM 72.9 °F - 68.9 °F 87% 30.09 in 0.8 mi WNW 13.8 mph 21.9 mph 0.35 in Rain , Thunderstorm Heavy Thunderstorms and Rain
3:10 PM 72.5 °F - 67.8 °F 85% 30.08 in - WSW 4.6 mph - N/A Thunderstorm Thunderstorm
3:30 PM 71.8 °F - 70.2 °F 95% 30.09 in 10.0 mi Calm Calm - N/A Rain , Thunderstorm Light Thunderstorms and Rain
3:55 PM 73.6 °F - 70.0 °F 88% 30.07 in 7.0 mi WNW 3.5 mph - N/A Rain , Thunderstorm Light Thunderstorms and Rain
4:10 PM 73.4 °F - 71.1 °F 92% 30.08 in 10.0 mi NNW 3.5 mph - N/A Rain , Thunderstorm Light Thunderstorms and Rain
4:30 PM 73.0 °F - 70.7 °F 92% 30.08 in 10.0 mi Calm Calm - N/A Rain Light Rain
4:50 PM 73.0 °F - 70.3 °F 91% 30.07 in 10.0 mi North 4.6 mph - N/A   Clear
5:10 PM 72.7 °F - 68.2 °F 86% 30.07 in 10.0 mi NNE 8.1 mph - N/A   Clear
5:30 PM 71.6 °F - 68.9 °F 91% 30.07 in 10.0 mi NNE 6.9 mph - N/A   Clear
5:50 PM 70.7 °F - 69.1 °F 95% 30.06 in 10.0 mi Calm Calm - N/A   Clear
6:10 PM 71.2 °F - 69.1 °F 93% 30.06 in 10.0 mi NNE 8.1 mph - N/A   Clear
6:30 PM 71.2 °F - 69.1 °F 93% 30.07 in 10.0 mi NNE 5.8 mph - N/A Thunderstorm Scattered Clouds
6:50 PM 71.2 °F - 69.3 °F 93% 30.07 in 10.0 mi NNE 4.6 mph - N/A   Scattered Clouds
7:10 PM 71.2 °F - 69.4 °F 94% 30.07 in 10.0 mi Calm Calm - N/A   Clear
7:30 PM 71.1 °F - 69.8 °F 96% 30.06 in 10.0 mi Calm Calm - N/A   Clear
7:50 PM 71.4 °F - 69.8 °F 95% 30.06 in 10.0 mi Calm Calm - N/A   Clear
8:10 PM 71.2 °F - 69.8 °F 95% 30.06 in 10.0 mi Calm Calm - N/A   Clear
8:30 PM 70.9 °F - 69.6 °F 96% 30.06 in 10.0 mi Calm Calm - N/A   Clear
8:50 PM 70.5 °F - 69.3 °F 96% 30.06 in 10.0 mi Calm Calm - N/A   Clear
9:10 PM 69.6 °F - 68.2 °F 95% 30.06 in 10.0 mi Calm Calm - N/A   Clear
9:30 PM 69.3 °F - 67.5 °F 94% 30.07 in 10.0 mi NE 3.5 mph - N/A   Scattered Clouds
9:50 PM 68.2 °F - 67.1 °F 96% 30.07 in 10.0 mi NNE 4.6 mph - N/A   Scattered Clouds
10:10 PM 67.6 °F - 66.6 °F 96% 30.07 in 10.0 mi Calm Calm - N/A   Scattered Clouds
10:30 PM 67.1 °F - 66.2 °F 97% 30.06 in 10.0 mi Calm Calm - N/A   Scattered Clouds
10:50 PM 67.1 °F - 66.2 °F 97% 30.06 in 10.0 mi Calm Calm - N/A   Clear
11:10 PM 67.6 °F - 66.6 °F 96% 30.06 in 10.0 mi Calm Calm - N/A   Clear
11:30 PM 67.3 °F - 66.4 °F 97% 30.06 in 10.0 mi Calm Calm - N/A   Clear
11:50 PM 66.2 °F - 65.5 °F 98% 30.06 in 10.0 mi Calm Calm - N/A   Clear